[[{"header":{"parameterUnit":"m.s-1","parameterCategory":1,"la1":30.2991,"la2":30.254,"lo1":-89.0895,"lo2":-89.0444,"dy":0.0017,"dx":0.0017,"nx":28,"ny":28,"refTime":"2024-03-05T09:00:00:Z","depth":0,"parameterNumber":2,"parameterNumberName":"U-component_of_WINDS"},"data":[0,0,0,0,0,0,0,0,0,0,0,0,0,0,0,0,0,0,0,0,0,0,0,0,0,0,0,0,0,0,0,0,0,0,0,0,0,0,0,0,0,0,0,0,0,0,0,0,0,0,0,0,0,0,0,0,0,0,0.6892,0.6893,0,0.6979,0.698,0.6981,0.6964,0.6962,0.696,0.6959,0.7048,0.7052,0.7056,0,0,0,0,0,0,0,0,0,0,0,0,0,0.6712,0.6715,0.6892,0.6893,0.6894,0.6979,0.698,0.6981,0.6964,0.6962,0.696,0.6958,0.7047,0.7052,0.7056,0,0,0,0,0,0,0,0,0,0,0,0,0,0.6794,0.6716,0.6892,0.6896,0.6897,0.6979,0.698,0.6981,0.6964,0.6962,0.6959,0.6957,0.7046,0.7051,0.7057,0.714,0,0,0.7075,0.7077,0,0,0,0,0,0,0,0,0.6789,0.68,0.6894,0.6896,0.6897,0.6958,0.6949,0.7035,0.6965,0.6939,0.6959,0.6956,0.702,0.7028,0.7049,0.7144,0.7148,0.7075,0.7079,0.7081,0.7083,0,0,0,0,0,0,0,0.6783,0.6796,0.6926,0.6896,0.6897,0.6893,0.6902,0.6965,0.6992,0.6941,0.694,0.695,0.7021,0.7044,0.7051,0.715,0.7075,0.708,0.7084,0.7086,0.7316,0.7319,0,0,0,0,0,0,0.6776,0.6792,0.6924,0.6929,0.6836,0.6898,0.6909,0.6941,0.6991,0.6996,0.6952,0.6949,0.7035,0.7045,0.7055,0.7154,0.7081,0.7087,0.709,0.7313,0.7317,0.7319,0,0,0,0,0,0,0.6772,0.6788,0.692,0.686,0.6877,0.6904,0.6941,0.6944,0.6967,0.7,0.7004,0.6971,0.7034,0.7046,0.7119,0.7157,0.7089,0.7094,0.731,0.7314,0.7318,0.7355,0,0,0,0,0,0,0.6767,0.6787,0.6819,0.6861,0.688,0.6983,0.6943,0.6947,0.6977,0.6974,0.7019,0.7024,0.7033,0.711,0.7124,0.7164,0.7099,0.7307,0.7312,0.7317,0.7351,0.736,0.7368,0,0,0,0,0,0.6761,0.6826,0.682,0.6836,0.692,0.6985,0.6996,0.7005,0.698,0.7012,0.7033,0.7022,0.7151,0.7118,0.7134,0.7175,0.7305,0.7311,0.7316,0.7347,0.7358,0.7368,0,0,0,0,0,0,0.6788,0.6832,0.6826,0.6907,0.6942,0.6982,0.7023,0.7017,0.706,0.7056,0.7065,0.7075,0.7149,0.717,0.7132,0.7258,0.7224,0.7234,0.7242,0.7253,0.7261,0.7254,0.7104,0,0,0,0,0,0.6803,0.6852,0.6888,0.6956,0.6974,0.6996,0.7024,0.7028,0.7065,0.708,0.7106,0.7143,0.7192,0.7224,0.727,0.7354,0.7363,0.739,0.7399,0.7406,0.7414,0.7458,0.7471,0.7339,0.7339,0.7339,0,0,0.6836,0.6866,0.6896,0.6962,0.699,0.704,0.7008,0.7063,0.71,0.7089,0.7158,0.7179,0.722,0.7298,0.7334,0.7318,0.7452,0.7413,0.7419,0.7423,0.7466,0.7478,0.7489,0.7343,0.7342,0.7342,0,0,0.692,0.6948,0.7007,0.7035,0.7078,0.7092,0.7106,0.7147,0.716,0.723,0.7222,0.7266,0.735,0.738,0.7406,0.7501,0.7492,0.7516,0.7561,0.7604,0.7614,0.7624,0.7656,0.7668,0.7524,0.7524,0.7524,0,0.6954,0.703,0.7038,0.7093,0.7122,0.7114,0.7173,0.7201,0.7257,0.7277,0.7258,0.7362,0.739,0.7474,0.7497,0.7519,0.7535,0.7511,0.7612,0.7622,0.763,0.7662,0.7674,0.7527,0.7526,0.7526,0.7526,0,0.7069,0.7122,0.7164,0.7218,0.7252,0.7309,0.7326,0.736,0.736,0.7376,0.7447,0.748,0.7532,0.7553,0.7555,0.7638,0.7626,0.761,0.7576,0.7645,0.7675,0.7687,0.753,0.7529,0.7528,0.7528,0,0,0.7173,0.723,0.7245,0.7269,0.7315,0.7356,0.7413,0.7464,0.7492,0.7531,0.7578,0.7649,0.7634,0.7664,0.7669,0.7707,0.7779,0.7686,0.7687,0.7701,0.7871,0.7881,0.7895,0.7774,0.7776,0.7778,0.7867,0,0.726,0.7359,0.7369,0.7458,0.7506,0.7499,0.7548,0.7582,0.7598,0.7641,0.7659,0.7709,0.7686,0.7704,0.7741,0.7762,0.7813,0.7756,0.7817,0.7819,0.7806,0.7911,0.7923,0.8005,0.7878,0.788,0.7882,0,0.7375,0.7416,0.751,0.7549,0.757,0.7614,0.7661,0.7703,0.7741,0.775,0.7783,0.7782,0.7841,0.7805,0.7885,0.7846,0.7872,0.7886,0.7889,0.7894,0.7854,0.7918,0.8032,0.8043,0.79,0.7899,0.7898,0,0.7439,0.7519,0.7585,0.7606,0.7653,0.7684,0.7705,0.7741,0.7771,0.7812,0.7832,0.788,0.7906,0.7943,0.7955,0.7928,0.8034,0.8,0.8043,0.8043,0.8065,0.8063,0.8183,0.8084,0.8083,0.8083,0.8083,0,0.7535,0.7592,0.7614,0.7655,0.7719,0.7729,0.7792,0.7812,0.7843,0.7888,0.7885,0.7926,0.7941,0.7985,0.7996,0.8059,0.8072,0.808,0.8082,0.808,0.8079,0.8096,0.809,0.8086,0.8086,0.8085,0.8084,0,0.7617,0.7634,0.7705,0.7744,0.7755,0.7801,0.7834,0.7873,0.7889,0.7944,0.7958,0.7983,0.8035,0.8051,0.8114,0.8121,0.8195,0.8192,0.8182,0.8182,0.8223,0.8218,0.8358,0.8376,0.8266,0.8267,0.8267,0,0.7676,0.772,0.7763,0.7792,0.7815,0.7862,0.7892,0.7904,0.7936,0.7982,0.8015,0.8066,0.8108,0.819,0.8214,0.8262,0.8259,0.8305,0.8266,0.8262,0.8258,0.8255,0.8259,0.8312,0.8313,0.8314,0.8315,0,0.7779,0.7785,0.7829,0.7875,0.7911,0.7949,0.7985,0.8009,0.8026,0.8062,0.8114,0.8146,0.8209,0.826,0.8308,0.833,0.8325,0.8327,0.8339,0.8336,0.8328,0.8331,0.82,0.8323,0.8322,0.8322,0.8321,0.8321,0.785,0.7889,0.7925,0.7973,0.8002,0.8035,0.8074,0.8094,0.8138,0.819,0.8194,0.8251,0.8287,0.8352,0.8376,0.842,0.8407,0.8425,0.843,0.8434,0.8436,0.8322,0.8429,0.8429,0.8429,0.8429,0.8429,0,0.7952,0.7975,0.802,0.807,0.8108,0.81,0.8139,0.8171,0.8221,0.8255,0.8296,0.8356,0.8405,0.8432,0.8481,0.8511,0.851,0.8523,0.852,0.8525,0.8446,0.843,0.8523,0.8523,0.8523,0.8523,0.8523,0.8523,0.8009,0.8073,0.8084,0.8161,0.8184,0.8239,0.8262,0.8293,0.832,0.8387,0.8427,0.8445,0.8476,0.8527,0.8571,0.8578,0.8596,0.861,0.8616,0.8541,0.8531,0.8522,0.8506,0.8614,0.8615,0.8691,0.8692,0.8692]},{"header":{"parameterUnit":"m.s-1","parameterCategory":1,"la1":30.2991,"la2":30.254,"lo1":-89.0895,"lo2":-89.0444,"dy":0.0017,"dx":0.0017,"nx":28,"ny":28,"refTime":"2024-03-05T09:00:00:Z","depth":0,"parameterNumber":3,"parameterNumberName":"V-component_of_WINDS"},"data":[0,0,0,0,0,0,0,0,0,0,0,0,0,0,0,0,0,0,0,0,0,0,0,0,0,0,0,0,0,0,0,0,0,0,0,0,0,0,0,0,0,0,0,0,0,0,0,0,0,0,0,0,0,0,0,0,0,0,0.8602,0.8602,0,0.8579,0.8579,0.8578,0.8506,0.8505,0.8503,0.8502,0.848,0.8481,0.8481,0,0,0,0,0,0,0,0,0,0,0,0,0,0.8584,0.8585,0.8602,0.8602,0.8601,0.8579,0.8579,0.8578,0.8507,0.8505,0.8503,0.8501,0.8479,0.848,0.8482,0,0,0,0,0,0,0,0,0,0,0,0,0,0.858,0.8585,0.8602,0.8563,0.8559,0.8579,0.8579,0.8578,0.8507,0.8505,0.8502,0.85,0.8479,0.848,0.8482,0.8538,0,0,0.8486,0.8486,0,0,0,0,0,0,0,0,0.858,0.858,0.8569,0.8565,0.8561,0.8543,0.8564,0.8565,0.8508,0.8527,0.8502,0.8499,0.8503,0.8502,0.8503,0.8537,0.8536,0.8486,0.8487,0.8487,0.8488,0,0,0,0,0,0,0,0.8581,0.8581,0.8593,0.8569,0.8564,0.8547,0.8543,0.8564,0.8529,0.8525,0.852,0.8518,0.85,0.8502,0.8502,0.8536,0.8486,0.8487,0.8488,0.8489,0.8614,0.8616,0,0,0,0,0,0,0.8586,0.8582,0.8593,0.8592,0.8565,0.8549,0.8545,0.8551,0.8528,0.8522,0.852,0.8515,0.8501,0.8501,0.8501,0.8565,0.8487,0.8489,0.8489,0.8611,0.8614,0.8617,0,0,0,0,0,0,0.8586,0.8588,0.8594,0.8585,0.8585,0.8552,0.8559,0.8552,0.8554,0.8524,0.8518,0.8528,0.8499,0.8499,0.8529,0.8563,0.8489,0.849,0.8608,0.8612,0.8616,0.8693,0,0,0,0,0,0,0.8586,0.8588,0.8609,0.8586,0.8586,0.8623,0.8561,0.8553,0.8556,0.8549,0.853,0.8525,0.8497,0.8527,0.853,0.8563,0.8492,0.8605,0.861,0.8615,0.8688,0.8699,0.8709,0,0,0,0,0,0.8586,0.8633,0.8611,0.8613,0.8611,0.8625,0.8625,0.8591,0.8559,0.858,0.8561,0.8525,0.8559,0.8531,0.8534,0.8568,0.8603,0.8609,0.8614,0.8683,0.8697,0.8709,0,0,0,0,0,0,0.8661,0.8629,0.8604,0.8645,0.8638,0.8613,0.8638,0.8607,0.861,0.8603,0.8562,0.8558,0.8594,0.8584,0.8554,0.8621,0.8575,0.8581,0.8626,0.8639,0.865,0.8652,0.8493,0,0,0,0,0,0.8683,0.8696,0.8667,0.8706,0.8704,0.8672,0.8677,0.8651,0.8643,0.864,0.8623,0.8616,0.8625,0.8632,0.8638,0.8686,0.868,0.871,0.8721,0.873,0.8736,0.876,0.8773,0.8636,0.8636,0.8636,0,0,0.8727,0.8711,0.8722,0.8721,0.8713,0.8728,0.867,0.8689,0.8699,0.8642,0.8669,0.8657,0.8647,0.8686,0.8702,0.8678,0.8773,0.8738,0.8745,0.8746,0.8767,0.878,0.8792,0.864,0.8639,0.8638,0,0,0.8816,0.8805,0.8836,0.8828,0.8816,0.8794,0.8802,0.8781,0.877,0.8796,0.8754,0.8766,0.8782,0.8776,0.8776,0.8861,0.8828,0.8865,0.8921,0.8945,0.8956,0.8965,0.8995,0.9006,0.8871,0.8871,0.8871,0,0.8873,0.8893,0.8856,0.8877,0.8877,0.8826,0.8857,0.8851,0.8842,0.8844,0.8817,0.8836,0.8826,0.8862,0.8883,0.8884,0.8891,0.8866,0.8957,0.8966,0.8974,0.9002,0.9014,0.8875,0.8875,0.8874,0.8874,0,0.8963,0.8978,0.9005,0.8996,0.9,0.9026,0.8993,0.9001,0.8975,0.8956,0.8983,0.8969,0.8971,0.8978,0.8954,0.9011,0.8996,0.8964,0.8917,0.8992,0.9018,0.9029,0.8882,0.888,0.8879,0.8878,0,0,0.91,0.9069,0.9079,0.9074,0.9057,0.9068,0.9091,0.9093,0.91,0.9096,0.9114,0.9129,0.9098,0.9098,0.9072,0.9093,0.9161,0.9058,0.9057,0.9077,0.9222,0.9247,0.926,0.9139,0.9141,0.9142,0.9223,0,0.9183,0.9221,0.9187,0.9232,0.9245,0.9196,0.9216,0.9207,0.919,0.9199,0.918,0.9191,0.915,0.9149,0.9168,0.9149,0.9189,0.9142,0.9156,0.9157,0.916,0.9273,0.9299,0.9376,0.9233,0.9235,0.9236,0,0.9285,0.9284,0.933,0.9308,0.9312,0.9331,0.9329,0.9338,0.9328,0.9314,0.9312,0.9281,0.9302,0.9257,0.9285,0.9254,0.9258,0.9249,0.9251,0.9251,0.9201,0.9276,0.94,0.9411,0.9252,0.925,0.9249,0,0.9379,0.9389,0.9417,0.9415,0.939,0.9405,0.9395,0.9382,0.9385,0.9384,0.9385,0.9387,0.9388,0.939,0.9359,0.9329,0.9392,0.9344,0.9381,0.9382,0.9397,0.9396,0.9523,0.94,0.94,0.9399,0.9399,0,0.9476,0.9505,0.9459,0.9476,0.9508,0.9469,0.9502,0.9487,0.9476,0.949,0.9448,0.9462,0.9421,0.943,0.9407,0.9434,0.9435,0.9424,0.9418,0.9428,0.9429,0.943,0.9423,0.9402,0.9402,0.9401,0.9401,0,0.9586,0.9556,0.9583,0.9558,0.9552,0.9576,0.9554,0.957,0.9549,0.9567,0.9569,0.9538,0.9547,0.9517,0.9521,0.9505,0.9545,0.953,0.9549,0.9544,0.9583,0.9579,0.9713,0.9729,0.9597,0.9598,0.9599,0,0.9649,0.967,0.9647,0.9653,0.9645,0.9655,0.9658,0.9621,0.9625,0.9614,0.963,0.9636,0.9638,0.9655,0.9633,0.9636,0.962,0.9667,0.962,0.963,0.962,0.9619,0.9621,0.9676,0.9678,0.9679,0.968,0,0.9765,0.9748,0.9753,0.9753,0.9756,0.9754,0.9749,0.9757,0.9717,0.9724,0.9732,0.9734,0.9738,0.9744,0.9742,0.9732,0.97,0.9695,0.9704,0.9714,0.9724,0.9719,0.9575,0.9692,0.9691,0.969,0.969,0.9689,0.9853,0.9869,0.9855,0.9861,0.9853,0.985,0.9862,0.9843,0.9849,0.9849,0.9827,0.984,0.9828,0.9822,0.9815,0.9825,0.9803,0.9816,0.9819,0.9823,0.9829,0.9723,0.9825,0.9824,0.9824,0.9824,0.9823,0,0.9965,0.9953,0.996,0.9954,0.9959,0.9927,0.992,0.9926,0.9938,0.9929,0.9932,0.9941,0.9947,0.9925,0.9927,0.9939,0.9924,0.9941,0.9939,0.9937,0.9849,0.9841,0.9953,0.9952,0.9952,0.9952,0.9952,0.9952,1.0025,1.005,1.0033,1.0054,1.0042,1.0053,1.0052,1.0048,1.0041,1.0053,1.0057,1.0042,1.0028,1.0029,1.0033,1.0026,1.0029,1.005,1.0039,0.9956,0.9944,0.9932,0.9924,1.0051,1.0052,1.0126,1.0127,1.0128]}]]